Location: Peebles
(55.6412°N, 3.1714°W)
Time: 21:05:16
(UTC+00:00)

deb Agena D - Pass Details

Date: 22 September 2023
Orbit: 794 x 979 km, 99.8° (Epoch: 28 November)

Event Time Altitude Azimuth Distance (km) Brightness Sun altitude
Rises 23:28:13 0° 26° (NNE) 3,696 10.0 -30.8°
Reaches altitude 10° 23:31:55 10° 48° (NE) 2,741 9.0 -31.1°
Enters shadow 23:33:40 14° 64° (ENE) 2,458 8.6 -31.2°
